Year,Month,Day,Hour,Minute,Value (Times are PST for temperature in C)
2006,08,30,00,00,12.50
2006,08,30,00,01,12.50
2006,08,30,00,02,12.50
2006,08,30,00,03,12.50
2006,08,30,00,04,12.50
2006,08,30,00,05,12.50
2006,08,30,00,06,12.50
2006,08,30,00,07,12.50
2006,08,30,00,08,12.50
2006,08,30,00,09,12.50
2006,08,30,00,10,12.50
2006,08,30,00,11,12.50
2006,08,30,00,12,12.50
2006,08,30,00,13,12.50
2006,08,30,00,14,12.50
2006,08,30,00,15,12.50
2006,08,30,00,16,12.50
2006,08,30,00,17,12.50
2006,08,30,00,18,12.50
2006,08,30,00,19,12.50
2006,08,30,00,20,12.60
2006,08,30,00,21,12.60
2006,08,30,00,22,12.60
2006,08,30,00,23,12.60
2006,08,30,00,24,12.60
2006,08,30,00,25,12.60
2006,08,30,00,26,12.60
2006,08,30,00,27,12.60
2006,08,30,00,28,12.70
2006,08,30,00,29,12.70
2006,08,30,00,30,12.70
2006,08,30,00,31,12.80
2006,08,30,00,32,12.80
2006,08,30,00,33,12.80
2006,08,30,00,34,12.80
2006,08,30,00,35,12.80
2006,08,30,00,36,12.80
2006,08,30,00,37,12.80
2006,08,30,00,38,12.80
2006,08,30,00,39,12.80
2006,08,30,00,40,12.80
2006,08,30,00,41,12.80
2006,08,30,00,42,12.80
2006,08,30,00,43,12.80
2006,08,30,00,44,12.80
2006,08,30,00,45,12.80
2006,08,30,00,46,12.80
2006,08,30,00,47,12.80
2006,08,30,00,48,12.80
2006,08,30,00,49,12.80
2006,08,30,00,50,12.80
2006,08,30,00,51,12.80
2006,08,30,00,52,12.80
2006,08,30,00,53,12.80
2006,08,30,00,54,12.80
2006,08,30,00,55,12.80
2006,08,30,00,56,12.80
2006,08,30,00,57,12.80
2006,08,30,00,58,12.80
2006,08,30,00,59,12.80
2006,08,30,01,00,12.80
2006,08,30,01,01,12.80
2006,08,30,01,02,12.80
2006,08,30,01,03,12.80
2006,08,30,01,04,12.80
2006,08,30,01,05,12.80
2006,08,30,01,06,12.80
2006,08,30,01,07,12.80
2006,08,30,01,08,12.80
2006,08,30,01,09,12.80
2006,08,30,01,10,12.80
2006,08,30,01,11,12.80
2006,08,30,01,12,12.80
2006,08,30,01,13,12.80
2006,08,30,01,14,12.80
2006,08,30,01,15,12.80
2006,08,30,01,16,12.80
2006,08,30,01,17,12.80
2006,08,30,01,18,12.80
2006,08,30,01,19,12.80
2006,08,30,01,20,12.80
2006,08,30,01,21,12.80
2006,08,30,01,22,12.80
2006,08,30,01,23,12.80
2006,08,30,01,24,12.70
2006,08,30,01,25,12.70
2006,08,30,01,26,12.70
2006,08,30,01,27,12.70
2006,08,30,01,28,12.70
2006,08,30,01,29,12.70
2006,08,30,01,30,12.70
2006,08,30,01,31,12.70
2006,08,30,01,32,12.70
2006,08,30,01,33,12.70
2006,08,30,01,34,12.70
2006,08,30,01,35,12.70
2006,08,30,01,36,12.70
2006,08,30,01,37,12.70
2006,08,30,01,38,12.70
2006,08,30,01,39,12.70
2006,08,30,01,40,12.70
2006,08,30,01,41,12.60
2006,08,30,01,42,12.60
2006,08,30,01,43,12.60
2006,08,30,01,44,12.60
2006,08,30,01,45,12.60
2006,08,30,01,46,12.60
2006,08,30,01,47,12.60
2006,08,30,01,48,12.60
2006,08,30,01,49,12.60
2006,08,30,01,50,12.60
2006,08,30,01,51,12.60
2006,08,30,01,52,12.60
2006,08,30,01,53,12.60
2006,08,30,01,54,12.60
2006,08,30,01,55,12.60
2006,08,30,01,56,12.70
2006,08,30,01,57,12.70
2006,08,30,01,58,12.70
2006,08,30,01,59,12.70
2006,08,30,02,00,12.70
2006,08,30,02,01,12.70
2006,08,30,02,02,12.70
2006,08,30,02,03,12.80
2006,08,30,02,04,12.80
2006,08,30,02,05,12.80
2006,08,30,02,06,12.80
2006,08,30,02,07,12.80
2006,08,30,02,08,12.80
2006,08,30,02,09,12.80
2006,08,30,02,10,12.80
2006,08,30,02,11,12.80
2006,08,30,02,12,12.80
2006,08,30,02,13,12.90
2006,08,30,02,14,12.90
2006,08,30,02,15,12.90
2006,08,30,02,16,12.90
2006,08,30,02,17,12.90
2006,08,30,02,18,12.90
2006,08,30,02,19,12.90
2006,08,30,02,20,12.90
2006,08,30,02,21,12.90
2006,08,30,02,22,12.90
2006,08,30,02,23,12.80
2006,08,30,02,24,12.80
2006,08,30,02,25,12.80
2006,08,30,02,26,12.80
2006,08,30,02,27,12.80
2006,08,30,02,28,12.80
2006,08,30,02,29,12.80
2006,08,30,02,30,12.80
2006,08,30,02,31,12.80
2006,08,30,02,32,12.80
2006,08,30,02,33,12.80
2006,08,30,02,34,12.90
2006,08,30,02,35,12.90
2006,08,30,02,36,12.90
2006,08,30,02,37,12.90
2006,08,30,02,38,13.00
2006,08,30,02,39,13.00
2006,08,30,02,40,13.00
2006,08,30,02,41,13.00
2006,08,30,02,42,13.00
2006,08,30,02,43,13.00
2006,08,30,02,44,13.00
2006,08,30,02,45,13.00
2006,08,30,02,46,13.00
2006,08,30,02,47,13.00
2006,08,30,02,48,13.00
2006,08,30,02,49,13.00
2006,08,30,02,50,13.00
2006,08,30,02,51,13.00
2006,08,30,02,52,13.00
2006,08,30,02,53,13.00
2006,08,30,02,54,12.90
2006,08,30,02,55,12.90
2006,08,30,02,56,12.90
2006,08,30,02,57,12.90
2006,08,30,02,58,12.80
2006,08,30,02,59,12.80
2006,08,30,03,00,12.80
2006,08,30,03,01,12.80
2006,08,30,03,02,12.80
2006,08,30,03,03,12.80
2006,08,30,03,04,12.80
2006,08,30,03,05,12.80
2006,08,30,03,06,12.70
2006,08,30,03,07,12.70
2006,08,30,03,08,12.70
2006,08,30,03,09,12.70
2006,08,30,03,10,12.60
2006,08,30,03,11,12.60
2006,08,30,03,12,12.60
2006,08,30,03,13,12.60
2006,08,30,03,14,12.60
2006,08,30,03,15,12.50
2006,08,30,03,16,12.50
2006,08,30,03,17,12.50
2006,08,30,03,18,12.50
2006,08,30,03,19,12.50
2006,08,30,03,20,12.50
2006,08,30,03,21,12.40
2006,08,30,03,22,12.40
2006,08,30,03,23,12.50
2006,08,30,03,24,12.50
2006,08,30,03,25,12.50
2006,08,30,03,26,12.50
2006,08,30,03,27,12.50
2006,08,30,03,28,12.50
2006,08,30,03,29,12.50
2006,08,30,03,30,12.50
2006,08,30,03,31,12.50
2006,08,30,03,32,12.50
2006,08,30,03,33,12.50
2006,08,30,03,34,12.50
2006,08,30,03,35,12.50
2006,08,30,03,36,12.50
2006,08,30,03,37,12.50
2006,08,30,03,38,12.60
2006,08,30,03,39,12.60
2006,08,30,03,40,12.60
2006,08,30,03,41,12.60
2006,08,30,03,42,12.60
2006,08,30,03,43,12.60
2006,08,30,03,44,12.60
2006,08,30,03,45,12.60
2006,08,30,03,46,12.60
2006,08,30,03,47,12.60
2006,08,30,03,48,12.60
2006,08,30,03,49,12.60
2006,08,30,03,50,12.60
2006,08,30,03,51,12.60
2006,08,30,03,52,12.60
2006,08,30,03,53,12.60
2006,08,30,03,54,12.60
2006,08,30,03,55,12.50
2006,08,30,03,56,12.50
2006,08,30,03,57,12.50
2006,08,30,03,58,12.50
2006,08,30,03,59,12.50
2006,08,30,04,00,12.50
2006,08,30,04,01,12.50
2006,08,30,04,02,12.50
2006,08,30,04,03,12.60
2006,08,30,04,04,12.60
2006,08,30,04,05,12.60
2006,08,30,04,06,12.60
2006,08,30,04,07,12.60
2006,08,30,04,08,12.60
2006,08,30,04,09,12.60
2006,08,30,04,10,12.60
2006,08,30,04,11,12.50
2006,08,30,04,12,12.50
2006,08,30,04,13,12.50
2006,08,30,04,14,12.50
2006,08,30,04,15,12.50
2006,08,30,04,16,12.50
2006,08,30,04,17,12.50
2006,08,30,04,18,12.50
2006,08,30,04,19,12.50
2006,08,30,04,20,12.50
2006,08,30,04,21,12.50
2006,08,30,04,22,12.50
2006,08,30,04,23,12.50
2006,08,30,04,24,12.50
2006,08,30,04,25,12.50
2006,08,30,04,26,12.50
2006,08,30,04,27,12.50
2006,08,30,04,28,12.50
2006,08,30,04,29,12.50
2006,08,30,04,30,12.50
2006,08,30,04,31,12.50
2006,08,30,04,32,12.50
2006,08,30,04,33,12.50
2006,08,30,04,34,12.50
2006,08,30,04,35,12.50
2006,08,30,04,36,12.50
2006,08,30,04,37,12.50
2006,08,30,04,38,12.50
2006,08,30,04,39,12.50
2006,08,30,04,40,12.50
2006,08,30,04,41,12.50
2006,08,30,04,42,12.50
2006,08,30,04,43,12.50
2006,08,30,04,44,12.50
2006,08,30,04,45,12.50
2006,08,30,04,46,12.50
2006,08,30,04,47,12.50
2006,08,30,04,48,12.50
2006,08,30,04,49,12.50
2006,08,30,04,50,12.50
2006,08,30,04,51,12.50
2006,08,30,04,52,12.50
2006,08,30,04,53,12.50
2006,08,30,04,54,12.50
2006,08,30,04,55,12.50
2006,08,30,04,56,12.50
2006,08,30,04,57,12.50
2006,08,30,04,58,12.50
2006,08,30,04,59,12.50
2006,08,30,05,00,12.50
2006,08,30,05,01,12.50
2006,08,30,05,02,12.50
2006,08,30,05,03,12.50
2006,08,30,05,04,12.50
2006,08,30,05,05,12.50
2006,08,30,05,06,12.50
2006,08,30,05,07,12.50
2006,08,30,05,08,12.50
2006,08,30,05,09,12.50
2006,08,30,05,10,12.50
2006,08,30,05,11,12.50
2006,08,30,05,12,12.40
2006,08,30,05,13,12.40
2006,08,30,05,14,12.40
2006,08,30,05,15,12.40
2006,08,30,05,16,12.40
2006,08,30,05,17,12.40
2006,08,30,05,18,12.40
2006,08,30,05,19,12.40
2006,08,30,05,20,12.40
2006,08,30,05,21,12.40
2006,08,30,05,22,12.40
2006,08,30,05,23,12.40
2006,08,30,05,24,12.40
2006,08,30,05,25,12.40
2006,08,30,05,26,12.40
2006,08,30,05,27,12.40
2006,08,30,05,28,12.40
2006,08,30,05,29,12.40
2006,08,30,05,30,12.40
2006,08,30,05,31,12.40
2006,08,30,05,32,12.40
2006,08,30,05,33,12.40
2006,08,30,05,34,12.30
2006,08,30,05,35,12.30
2006,08,30,05,36,12.30
2006,08,30,05,37,12.30
2006,08,30,05,38,12.30
2006,08,30,05,39,12.30
2006,08,30,05,40,12.30
2006,08,30,05,41,12.30
2006,08,30,05,42,12.30
2006,08,30,05,43,12.30
2006,08,30,05,44,12.30
2006,08,30,05,45,12.30
2006,08,30,05,46,12.30
2006,08,30,05,47,12.30
2006,08,30,05,48,12.30
2006,08,30,05,49,12.30
2006,08,30,05,50,12.30
2006,08,30,05,51,12.30
2006,08,30,05,52,12.30
2006,08,30,05,53,12.30
2006,08,30,11,15,15.50
2006,08,30,11,16,15.60
2006,08,30,11,17,15.60
2006,08,30,11,18,15.70
2006,08,30,11,19,15.70
2006,08,30,11,20,15.60
2006,08,30,11,21,15.60
2006,08,30,11,22,15.60
2006,08,30,11,23,15.50
2006,08,30,11,24,15.50
2006,08,30,11,25,15.50
2006,08,30,11,26,15.50
2006,08,30,11,27,15.60
2006,08,30,11,28,15.60
2006,08,30,11,29,15.60
2006,08,30,11,30,15.60
2006,08,30,11,31,15.60
2006,08,30,11,32,15.60
2006,08,30,11,33,15.60
2006,08,30,11,34,15.70
2006,08,30,11,35,15.70
2006,08,30,11,36,15.70
2006,08,30,11,37,15.70
2006,08,30,11,38,15.80
2006,08,30,11,39,15.80
2006,08,30,11,40,15.70
2006,08,30,11,41,15.70
2006,08,30,11,42,15.70
2006,08,30,11,43,15.80
2006,08,30,11,44,15.80
2006,08,30,11,45,15.80
2006,08,30,11,46,15.80
2006,08,30,11,47,15.90
2006,08,30,11,48,15.90
2006,08,30,11,49,15.80
2006,08,30,11,50,15.80
2006,08,30,11,51,15.80
2006,08,30,11,52,15.70
2006,08,30,11,53,15.60
2006,08,30,11,54,15.70
2006,08,30,11,55,15.80
2006,08,30,11,56,15.80
2006,08,30,11,57,15.80
2006,08,30,11,58,15.80
2006,08,30,11,59,15.80
2006,08,30,12,00,15.80
2006,08,30,12,01,15.70
2006,08,30,12,02,15.70
2006,08,30,12,03,15.70
2006,08,30,12,04,15.80
2006,08,30,12,05,15.90
2006,08,30,12,06,15.90
2006,08,30,12,07,15.90
2006,08,30,12,08,15.80
2006,08,30,12,09,15.80
2006,08,30,12,10,15.90
2006,08,30,12,11,15.90
2006,08,30,12,12,15.90
2006,08,30,12,13,15.80
2006,08,30,12,14,15.80
2006,08,30,12,15,15.90
2006,08,30,12,16,16.00
2006,08,30,12,17,16.10
2006,08,30,12,18,16.00
2006,08,30,12,19,15.90
2006,08,30,12,20,15.80
2006,08,30,12,21,15.80
2006,08,30,12,22,15.80
2006,08,30,12,23,15.80
2006,08,30,12,24,15.90
2006,08,30,12,25,16.10
2006,08,30,12,26,16.10
2006,08,30,12,27,16.10
2006,08,30,12,28,16.10
2006,08,30,12,29,16.10
2006,08,30,12,30,16.00
2006,08,30,12,31,15.90
2006,08,30,12,32,15.90
2006,08,30,12,33,15.90
2006,08,30,12,34,15.90
2006,08,30,12,35,15.90
2006,08,30,12,36,16.00
2006,08,30,12,37,16.10
2006,08,30,12,38,16.10
2006,08,30,12,39,16.10
2006,08,30,12,40,16.20
2006,08,30,12,41,16.30
2006,08,30,12,42,16.30
2006,08,30,12,43,16.30
2006,08,30,12,44,16.30
2006,08,30,12,45,16.30
2006,08,30,12,46,16.30
2006,08,30,12,47,16.30
2006,08,30,12,48,16.20
2006,08,30,12,49,16.20
2006,08,30,12,50,16.20
2006,08,30,12,51,16.30
2006,08,30,12,52,16.40
2006,08,30,12,53,16.40
2006,08,30,12,54,16.40
2006,08,30,12,55,16.40
2006,08,30,12,56,16.50
2006,08,30,12,57,16.60
2006,08,30,12,58,16.70
2006,08,30,12,59,16.70
2006,08,30,13,00,16.70
2006,08,30,13,01,16.80
2006,08,30,13,02,16.70
2006,08,30,13,03,16.70
2006,08,30,13,04,16.50
2006,08,30,13,05,16.40
2006,08,30,13,06,16.40
2006,08,30,13,07,16.60
2006,08,30,13,08,16.60
2006,08,30,13,09,16.70
2006,08,30,13,10,16.70
2006,08,30,13,11,16.70
2006,08,30,13,12,16.70
2006,08,30,13,13,16.70
2006,08,30,13,14,16.70
2006,08,30,13,15,16.70
2006,08,30,13,16,16.80
2006,08,30,13,17,16.80
2006,08,30,13,18,16.90
2006,08,30,13,19,16.90
2006,08,30,13,20,17.00
2006,08,30,13,21,16.90
2006,08,30,13,22,16.90
2006,08,30,13,23,16.80
2006,08,30,13,24,16.90
2006,08,30,13,25,16.80
2006,08,30,13,26,16.90
2006,08,30,13,27,16.90
2006,08,30,13,28,17.00
2006,08,30,13,29,17.00
2006,08,30,13,30,16.90
2006,08,30,13,31,17.00
2006,08,30,13,32,17.00
2006,08,30,13,33,17.00
2006,08,30,13,34,17.10
2006,08,30,13,35,17.10
2006,08,30,13,36,17.10
2006,08,30,13,37,17.20
2006,08,30,13,38,17.30
2006,08,30,13,39,17.30
2006,08,30,13,40,17.30
2006,08,30,13,41,17.30
2006,08,30,13,42,17.20
2006,08,30,13,43,17.20
2006,08,30,13,44,17.20
2006,08,30,13,45,17.10
2006,08,30,13,46,17.00
2006,08,30,13,47,17.10
2006,08,30,13,48,17.10
2006,08,30,13,49,17.10
2006,08,30,13,50,17.20
2006,08,30,13,51,17.30
2006,08,30,13,52,17.30
2006,08,30,13,53,17.30
2006,08,30,13,54,17.30
2006,08,30,13,55,17.30
2006,08,30,13,56,17.30
2006,08,30,13,57,17.40
2006,08,30,13,58,17.40
2006,08,30,13,59,17.30
2006,08,30,14,00,17.40
2006,08,30,14,01,17.50
2006,08,30,14,02,17.50
2006,08,30,14,03,17.40
2006,08,30,14,04,17.30
2006,08,30,14,05,17.30
2006,08,30,14,06,17.30
2006,08,30,14,07,17.40
2006,08,30,14,08,17.40
2006,08,30,14,09,17.50
2006,08,30,14,10,17.50
2006,08,30,14,11,17.40
2006,08,30,14,12,17.40
2006,08,30,14,13,17.50
2006,08,30,14,14,17.50
2006,08,30,14,15,17.50
2006,08,30,14,16,17.60
2006,08,30,14,17,17.60
2006,08,30,14,18,17.60
2006,08,30,14,19,17.60
2006,08,30,14,20,17.50
2006,08,30,14,21,17.50
2006,08,30,14,22,17.60
2006,08,30,14,23,17.60
2006,08,30,14,24,17.60
2006,08,30,14,25,17.50
2006,08,30,14,26,17.60
2006,08,30,14,27,17.50
2006,08,30,14,28,17.50
2006,08,30,14,29,17.50
2006,08,30,14,30,17.50
2006,08,30,14,31,17.50
2006,08,30,14,32,17.50
2006,08,30,14,33,17.60
2006,08,30,14,34,17.50
2006,08,30,14,35,17.50
2006,08,30,14,36,17.60
2006,08,30,14,37,17.70
2006,08,30,14,38,17.70
2006,08,30,14,39,17.60
2006,08,30,14,40,17.50
2006,08,30,14,41,17.50
2006,08,30,14,42,17.50
2006,08,30,14,43,17.50
2006,08,30,14,44,17.60
2006,08,30,14,45,17.60
2006,08,30,14,46,17.70
2006,08,30,14,47,17.80
2006,08,30,14,48,17.80
2006,08,30,14,49,17.80
2006,08,30,14,50,17.90
2006,08,30,14,51,17.90
2006,08,30,14,52,17.90
2006,08,30,14,53,17.90
2006,08,30,14,54,17.90
2006,08,30,14,55,17.80
2006,08,30,14,56,17.70
2006,08,30,14,57,17.60
2006,08,30,14,58,17.60
2006,08,30,14,59,17.60
2006,08,30,15,00,17.60
2006,08,30,15,01,17.60
2006,08,30,15,02,17.50
2006,08,30,15,03,17.40
2006,08,30,15,04,17.40
2006,08,30,15,05,17.40
2006,08,30,15,06,17.40
2006,08,30,15,07,17.50
2006,08,30,15,08,17.50
2006,08,30,15,09,17.60
2006,08,30,15,10,17.50
2006,08,30,15,11,17.40
2006,08,30,15,12,17.40
2006,08,30,15,13,17.30
2006,08,30,15,14,17.10
2006,08,30,15,15,17.10
2006,08,30,15,16,17.10
2006,08,30,15,17,17.20
2006,08,30,15,18,17.30
2006,08,30,15,19,17.30
2006,08,30,15,20,17.40
2006,08,30,15,21,17.50
2006,08,30,15,22,17.50
2006,08,30,15,23,17.40
2006,08,30,15,24,17.50
2006,08,30,15,25,17.50
2006,08,30,15,26,17.60
2006,08,30,15,27,17.50
2006,08,30,15,28,17.60
2006,08,30,15,29,17.50
2006,08,30,15,30,17.50
2006,08,30,15,31,17.60
2006,08,30,15,32,17.50
2006,08,30,15,33,17.40
2006,08,30,15,34,17.40
2006,08,30,15,35,17.40
2006,08,30,15,36,17.30
2006,08,30,15,37,17.30
2006,08,30,15,38,17.30
2006,08,30,15,39,17.30
2006,08,30,15,40,17.40
2006,08,30,15,41,17.40
2006,08,30,15,42,17.50
2006,08,30,15,43,17.50
2006,08,30,15,44,17.60
2006,08,30,15,45,17.60
2006,08,30,15,46,17.60
2006,08,30,15,47,17.50
2006,08,30,15,48,17.50
2006,08,30,15,49,17.60
2006,08,30,15,50,17.50
2006,08,30,15,51,17.50
2006,08,30,15,52,17.40
2006,08,30,15,53,17.40
2006,08,30,15,54,17.40
2006,08,30,15,55,17.40
2006,08,30,15,56,17.30
2006,08,30,15,57,17.30
2006,08,30,15,58,17.30
2006,08,30,15,59,17.30
2006,08,30,16,00,17.30
2006,08,30,16,01,17.30
2006,08,30,16,02,17.30
2006,08,30,16,03,17.20
2006,08,30,16,04,17.20
2006,08,30,16,05,17.10
2006,08,30,16,06,17.10
2006,08,30,16,07,17.10
2006,08,30,16,08,17.10
2006,08,30,16,09,17.10
2006,08,30,16,10,17.10
2006,08,30,16,11,17.10
2006,08,30,16,12,17.10
2006,08,30,16,13,17.10
2006,08,30,16,14,17.10
2006,08,30,16,15,17.10
2006,08,30,16,16,17.20
2006,08,30,16,17,17.20
2006,08,30,16,18,17.30
2006,08,30,16,19,17.30
2006,08,30,16,20,17.30
2006,08,30,16,21,17.30
2006,08,30,16,22,17.20
2006,08,30,16,23,17.20
2006,08,30,16,24,17.20
2006,08,30,16,25,17.10
2006,08,30,16,26,17.10
2006,08,30,16,27,17.00
2006,08,30,16,28,17.00
2006,08,30,16,29,17.10
2006,08,30,16,30,17.20
2006,08,30,16,31,17.30
2006,08,30,16,32,17.30
2006,08,30,16,33,17.20
2006,08,30,16,34,17.20
2006,08,30,16,35,17.20
2006,08,30,16,36,17.20
2006,08,30,16,37,17.10
2006,08,30,16,38,17.00
2006,08,30,16,39,17.00
2006,08,30,16,40,17.10
2006,08,30,16,41,17.10
2006,08,30,16,42,17.10
2006,08,30,16,43,17.10
2006,08,30,16,44,17.00
2006,08,30,16,45,16.90
2006,08,30,16,46,16.90
2006,08,30,16,47,16.90
2006,08,30,16,48,16.80
2006,08,30,16,49,16.70
2006,08,30,16,50,16.70
2006,08,30,16,51,16.70
2006,08,30,16,52,16.70
2006,08,30,16,53,16.80
2006,08,30,16,54,16.80
2006,08,30,16,55,16.70
2006,08,30,16,56,16.70
2006,08,30,16,57,16.70
2006,08,30,16,58,16.70
2006,08,30,16,59,16.60
2006,08,30,17,00,16.60
2006,08,30,17,01,16.50
2006,08,30,17,02,16.40
2006,08,30,17,03,16.40
2006,08,30,17,04,16.40
2006,08,30,17,05,16.40
2006,08,30,17,06,16.40
2006,08,30,17,07,16.40
2006,08,30,17,08,16.40
2006,08,30,17,09,16.40
2006,08,30,17,10,16.40
2006,08,30,17,11,16.40
2006,08,30,17,12,16.40
2006,08,30,17,13,16.40
2006,08,30,17,14,16.40
2006,08,30,17,15,16.30
2006,08,30,17,16,16.30
2006,08,30,17,17,16.30
2006,08,30,17,18,16.20
2006,08,30,17,19,16.20
2006,08,30,17,20,16.20
2006,08,30,17,21,16.20
2006,08,30,17,22,16.20
2006,08,30,17,23,16.20
2006,08,30,17,24,16.20
2006,08,30,17,25,16.20
2006,08,30,17,26,16.30
2006,08,30,17,27,16.30
2006,08,30,17,28,16.30
2006,08,30,17,29,16.30
2006,08,30,17,30,16.30
2006,08,30,17,31,16.30
2006,08,30,17,32,16.20
2006,08,30,17,33,16.20
2006,08,30,17,34,16.10
2006,08,30,17,35,16.10
2006,08,30,17,36,16.10
2006,08,30,17,37,16.10
2006,08,30,17,38,16.10
2006,08,30,17,39,16.10
2006,08,30,17,40,16.10
2006,08,30,17,41,16.10
2006,08,30,17,42,16.10
2006,08,30,17,43,16.10
2006,08,30,17,44,16.10
2006,08,30,17,45,16.20
2006,08,30,17,46,16.20
2006,08,30,17,47,16.20
2006,08,30,17,48,16.20
2006,08,30,17,49,16.30
2006,08,30,17,50,16.30
2006,08,30,17,51,16.30
2006,08,30,17,52,16.30
2006,08,30,17,53,16.30
2006,08,30,17,54,16.30
2006,08,30,17,55,16.30
2006,08,30,17,56,16.30
2006,08,30,17,57,16.30
2006,08,30,17,58,16.30
2006,08,30,17,59,16.20
2006,08,30,18,00,16.20
2006,08,30,18,01,16.20
2006,08,30,18,02,16.20
2006,08,30,18,03,16.20
2006,08,30,18,04,16.20
2006,08,30,18,05,16.20
2006,08,30,18,06,16.20
2006,08,30,18,07,16.20
2006,08,30,18,08,16.20
2006,08,30,18,09,16.20
2006,08,30,18,10,16.10
2006,08,30,18,11,16.10
2006,08,30,18,12,16.10
2006,08,30,18,13,16.10
2006,08,30,18,14,16.10
2006,08,30,18,15,16.10
2006,08,30,18,16,16.10
2006,08,30,18,17,16.10
2006,08,30,18,18,16.10
2006,08,30,18,19,16.10
2006,08,30,18,20,16.20
2006,08,30,18,21,16.20
2006,08,30,18,22,16.20
2006,08,30,18,23,16.20
2006,08,30,18,24,16.20
2006,08,30,18,25,16.20
2006,08,30,18,26,16.20
2006,08,30,18,27,16.20
2006,08,30,18,28,16.20
2006,08,30,18,29,16.20
2006,08,30,18,30,16.20
2006,08,30,18,31,16.10
2006,08,30,18,32,16.10
2006,08,30,18,33,16.10
2006,08,30,18,34,16.10
2006,08,30,18,35,16.10
2006,08,30,18,36,16.10
2006,08,30,18,37,16.10
2006,08,30,18,38,16.10
2006,08,30,18,39,16.10
2006,08,30,18,40,16.10
2006,08,30,18,41,15.90
2006,08,30,18,42,15.90
2006,08,30,18,43,15.90
2006,08,30,18,44,15.80
2006,08,30,18,45,15.80
2006,08,30,18,46,15.80
2006,08,30,18,47,15.80
2006,08,30,18,48,15.80
2006,08,30,18,49,15.80
2006,08,30,18,50,15.80
2006,08,30,18,51,15.80
2006,08,30,18,52,15.80
2006,08,30,18,53,15.80
2006,08,30,18,54,15.80
2006,08,30,18,55,15.80
2006,08,30,18,56,15.80
2006,08,30,18,57,15.80
2006,08,30,18,58,15.70
2006,08,30,18,59,15.70
2006,08,30,19,00,15.70
2006,08,30,19,01,15.70
2006,08,30,19,02,15.70
2006,08,30,19,03,15.70
2006,08,30,19,04,15.60
2006,08,30,19,05,15.60
2006,08,30,19,06,15.60
2006,08,30,19,07,15.60
2006,08,30,19,08,15.60
2006,08,30,19,09,15.60
2006,08,30,19,10,15.50
2006,08,30,19,11,15.50
2006,08,30,19,12,15.50
2006,08,30,19,13,15.50
2006,08,30,19,14,15.50
2006,08,30,19,15,15.50
2006,08,30,19,16,15.50
2006,08,30,19,17,15.50
2006,08,30,19,18,15.40
2006,08,30,19,19,15.40
2006,08,30,19,20,15.40
2006,08,30,19,21,15.40
2006,08,30,19,22,15.40
2006,08,30,19,23,15.40
2006,08,30,19,24,15.40
2006,08,30,19,25,15.40
2006,08,30,19,26,15.40
2006,08,30,19,27,15.40
2006,08,30,19,28,15.40
2006,08,30,19,29,15.40
2006,08,30,19,30,15.30
2006,08,30,19,31,15.30
2006,08,30,19,32,15.30
2006,08,30,19,33,15.30
2006,08,30,19,34,15.30
2006,08,30,19,35,15.30
2006,08,30,19,36,15.30
2006,08,30,19,37,15.30
2006,08,30,19,38,15.20
2006,08,30,19,39,15.20
2006,08,30,19,40,15.20
2006,08,30,19,41,15.20
2006,08,30,19,42,15.20
2006,08,30,19,43,15.20
2006,08,30,19,44,15.20
2006,08,30,19,45,15.20
2006,08,30,19,46,15.20
2006,08,30,19,47,15.10
2006,08,30,19,48,15.10
2006,08,30,19,49,15.10
2006,08,30,19,50,15.10
2006,08,30,19,51,15.10
2006,08,30,19,52,15.10
2006,08,30,19,53,15.10
2006,08,30,19,54,15.00
2006,08,30,19,55,15.00
2006,08,30,19,56,15.00
2006,08,30,19,57,15.00
2006,08,30,19,58,15.00
2006,08,30,19,59,15.00
2006,08,30,20,00,15.00
2006,08,30,20,01,14.90
2006,08,30,20,02,14.90
2006,08,30,20,03,14.90
2006,08,30,20,04,14.90
2006,08,30,20,05,14.90
2006,08,30,20,06,14.80
2006,08,30,20,07,14.80
2006,08,30,20,08,14.80
2006,08,30,20,09,14.80
2006,08,30,20,10,14.80
2006,08,30,20,11,14.80
2006,08,30,20,12,14.80
2006,08,30,20,13,14.80
2006,08,30,20,14,14.80
2006,08,30,20,15,14.70
2006,08,30,20,16,14.70
2006,08,30,20,17,14.70
2006,08,30,20,18,14.70
2006,08,30,20,19,14.60
2006,08,30,20,20,14.60
2006,08,30,20,21,14.60
2006,08,30,20,22,14.60
2006,08,30,20,23,14.60
2006,08,30,20,24,14.60
2006,08,30,20,25,14.60
2006,08,30,20,26,14.60
2006,08,30,20,27,14.50
2006,08,30,20,28,14.50
2006,08,30,20,29,14.50
2006,08,30,20,30,14.50
2006,08,30,20,31,14.50
2006,08,30,20,32,14.40
2006,08,30,20,33,14.40
2006,08,30,20,34,14.40
2006,08,30,20,35,14.40
2006,08,30,20,36,14.40
2006,08,30,20,37,14.30
2006,08,30,20,38,14.30
2006,08,30,20,39,14.30
2006,08,30,20,40,14.30
2006,08,30,20,41,14.30
2006,08,30,20,42,14.20
2006,08,30,20,43,14.20
2006,08,30,20,44,14.20
2006,08,30,20,45,14.20
2006,08,30,20,46,14.20
2006,08,30,20,47,14.20
2006,08,30,20,48,14.20
2006,08,30,20,49,14.20
2006,08,30,20,50,14.10
2006,08,30,20,51,14.10
2006,08,30,20,52,14.10
2006,08,30,20,53,14.10
2006,08,30,20,54,14.10
2006,08,30,20,55,14.00
2006,08,30,20,56,14.00
2006,08,30,20,57,14.00
2006,08,30,20,58,14.00
2006,08,30,20,59,14.00
2006,08,30,21,00,14.00
2006,08,30,21,01,14.00
2006,08,30,21,02,14.00
2006,08,30,21,03,14.00
2006,08,30,21,04,13.90
2006,08,30,21,05,13.90
2006,08,30,21,06,13.90
2006,08,30,21,07,13.90
2006,08,30,21,08,13.90
2006,08,30,21,09,13.90
2006,08,30,21,10,13.90
2006,08,30,21,11,13.90
2006,08,30,21,12,13.90
2006,08,30,21,13,13.90
2006,08,30,21,14,13.90
2006,08,30,21,15,13.90
2006,08,30,21,16,13.90
2006,08,30,21,17,13.90
2006,08,30,21,18,13.90
2006,08,30,21,19,13.90
2006,08,30,21,20,13.90
2006,08,30,21,21,13.80
2006,08,30,21,22,13.80
2006,08,30,21,23,13.80
2006,08,30,21,24,13.80
2006,08,30,21,25,13.80
2006,08,30,21,26,13.80
2006,08,30,21,27,13.80
2006,08,30,21,28,13.80
2006,08,30,21,29,13.80
2006,08,30,21,30,13.80
2006,08,30,21,31,13.80
2006,08,30,21,32,13.80
2006,08,30,21,33,13.80
2006,08,30,21,34,13.80
2006,08,30,21,35,13.80
2006,08,30,21,36,13.80
2006,08,30,21,37,13.80
2006,08,30,21,38,13.70
2006,08,30,21,39,13.80
2006,08,30,21,40,13.80
2006,08,30,21,41,13.80
2006,08,30,21,42,13.70
2006,08,30,21,43,13.70
2006,08,30,21,44,13.70
2006,08,30,21,45,13.70
2006,08,30,21,46,13.70
2006,08,30,21,47,13.70
2006,08,30,21,48,13.70
2006,08,30,21,49,13.70
2006,08,30,21,50,13.70
2006,08,30,21,51,13.70
2006,08,30,21,52,13.70
2006,08,30,21,53,13.70
2006,08,30,21,54,13.70
2006,08,30,21,55,13.70
2006,08,30,21,56,13.70
2006,08,30,21,57,13.70
2006,08,30,21,58,13.70
2006,08,30,21,59,13.70
2006,08,30,22,00,13.70
2006,08,30,22,01,13.70
2006,08,30,22,02,13.70
2006,08,30,22,03,13.70
2006,08,30,22,04,13.60
2006,08,30,22,05,13.60
2006,08,30,22,06,13.60
2006,08,30,22,07,13.60
2006,08,30,22,08,13.60
2006,08,30,22,09,13.60
2006,08,30,22,10,13.60
2006,08,30,22,11,13.60
2006,08,30,22,12,13.60
2006,08,30,22,13,13.60
2006,08,30,22,14,13.60
2006,08,30,22,15,13.60
2006,08,30,22,16,13.60
2006,08,30,22,17,13.60
2006,08,30,22,18,13.70
2006,08,30,22,19,13.60
2006,08,30,22,20,13.60
2006,08,30,22,21,13.60
2006,08,30,22,22,13.60
2006,08,30,22,23,13.50
2006,08,30,22,24,13.50
2006,08,30,22,25,13.50
2006,08,30,22,26,13.50
2006,08,30,22,27,13.50
2006,08,30,22,28,13.50
2006,08,30,22,29,13.50
2006,08,30,22,30,13.50
2006,08,30,22,31,13.40
2006,08,30,22,32,13.40
2006,08,30,22,33,13.30
2006,08,30,22,34,13.30
2006,08,30,22,35,13.30
2006,08,30,22,36,13.30
2006,08,30,22,37,13.30
2006,08,30,22,38,13.30
2006,08,30,22,39,13.30
2006,08,30,22,40,13.30